Location: Nitra
(0.0000°N, 18.0833°E)
Time: 13:11:18
(UTC+01:00)

SL-16 R/B - Pass Details

Date: 25 September 2022
Orbit: 842 x 845 km, 71.0° (Epoch: 26 November)

Event Time Altitude Azimuth Distance (km) Brightness Sun altitude
Rises 20:57:50 0° 208° (SSW) 3,396 5.7 -34.6°
Reaches altitude 10° 21:00:24 10° 215° (SW) 2,459 5.0 -35.3°
Enters shadow 21:04:00 34° 243° (WSW) 1,355 3.6 -36.2°
